[[{"header":{"parameterUnit":"m.s-1","parameterCategory":1,"la1":30.2991,"la2":30.254,"lo1":-89.0895,"lo2":-89.0444,"dy":0.0017,"dx":0.0017,"nx":28,"ny":28,"refTime":"2024-02-28T03:00:00:Z","depth":0,"parameterNumber":2,"parameterNumberName":"U-component_of_WINDS"},"data":[0,0,0,0,0,0,0,0,0,0,0,0,0,0,0,0,0,0,0,0,0,0,0,0,0,0,0,0,0,0,0,0,0,0,0,0,0,0,0,0,0,0,0,0,0,0,0,0,0,0,0,0,0,0,0,0,0,0,0.3709,0.3709,0,0.3672,0.3671,0.3671,0.3635,0.3635,0.3634,0.3634,0.3596,0.3596,0.3595,0,0,0,0,0,0,0,0,0,0,0,0,0,0.3752,0.3752,0.3709,0.3709,0.3708,0.3672,0.3671,0.3671,0.3635,0.3635,0.3634,0.3633,0.3597,0.3596,0.3595,0,0,0,0,0,0,0,0,0,0,0,0,0,0.3726,0.3751,0.3709,0.3686,0.3684,0.3672,0.3671,0.3671,0.3635,0.3635,0.3634,0.3633,0.3597,0.3596,0.3595,0.3604,0,0,0.3593,0.3592,0,0,0,0,0,0,0,0,0.3728,0.3724,0.369,0.3688,0.3685,0.3657,0.3673,0.3648,0.3635,0.3654,0.3634,0.3633,0.3617,0.3615,0.3609,0.3602,0.36,0.3593,0.3592,0.3592,0.3591,0,0,0,0,0,0,0,0.3729,0.3726,0.3694,0.369,0.3687,0.3678,0.3674,0.3668,0.364,0.3652,0.3649,0.3645,0.3616,0.361,0.3608,0.36,0.3593,0.3592,0.3591,0.3591,0.3599,0.3599,0,0,0,0,0,0,0.3735,0.3728,0.3696,0.3693,0.3705,0.3678,0.3673,0.3667,0.364,0.3635,0.3646,0.3644,0.3612,0.3609,0.3607,0.3616,0.3592,0.3591,0.359,0.3598,0.3599,0.36,0,0,0,0,0,0,0.3736,0.3732,0.3697,0.371,0.3705,0.3678,0.3671,0.3667,0.3661,0.3635,0.363,0.3645,0.3611,0.3608,0.3605,0.3614,0.3591,0.359,0.3597,0.3598,0.3599,0.3633,0,0,0,0,0,0,0.3737,0.3733,0.3735,0.371,0.3704,0.3696,0.3672,0.3666,0.3659,0.3656,0.3633,0.3629,0.3611,0.3606,0.3604,0.3612,0.3589,0.3596,0.3598,0.3599,0.3631,0.3635,0.3639,0,0,0,0,0,0.3739,0.3746,0.3735,0.3732,0.3707,0.3696,0.3693,0.3671,0.366,0.3663,0.3646,0.3629,0.3613,0.3606,0.3603,0.3612,0.3596,0.3597,0.3599,0.363,0.3635,0.3639,0,0,0,0,0,0,0.3773,0.3742,0.373,0.373,0.3716,0.369,0.3693,0.3677,0.3666,0.3664,0.3638,0.3633,0.3634,0.3622,0.3615,0.3619,0.3602,0.3603,0.3626,0.3631,0.3635,0.3638,0.3588,0,0,0,0,0,0.3781,0.3774,0.3748,0.375,0.3744,0.3719,0.3714,0.3699,0.3684,0.3678,0.3661,0.3647,0.3639,0.3634,0.3625,0.3629,0.3624,0.3634,0.3637,0.3641,0.3642,0.3645,0.3649,0.3605,0.3605,0.3605,0,0,0.3796,0.3778,0.3776,0.3756,0.3744,0.3739,0.3715,0.371,0.3706,0.3677,0.3673,0.3661,0.3644,0.3645,0.3644,0.3635,0.3653,0.3643,0.3646,0.3645,0.3647,0.3651,0.3655,0.3606,0.3606,0.3606,0,0,0.3822,0.3807,0.3808,0.3796,0.3777,0.3761,0.3762,0.3738,0.3729,0.3725,0.3703,0.3699,0.3685,0.3674,0.3667,0.3689,0.3674,0.3687,0.3707,0.371,0.3714,0.3717,0.3726,0.3729,0.3688,0.3689,0.3689,0,0.3843,0.3834,0.3811,0.3807,0.38,0.3773,0.3774,0.3764,0.3743,0.3739,0.3729,0.3712,0.3699,0.3697,0.3703,0.3697,0.3698,0.369,0.3715,0.3718,0.372,0.3729,0.3732,0.369,0.369,0.369,0.369,0,0.3862,0.3856,0.3859,0.384,0.3833,0.3832,0.3809,0.3805,0.379,0.3776,0.3772,0.3755,0.3743,0.3741,0.3727,0.3738,0.3734,0.372,0.3702,0.3727,0.3734,0.3737,0.3693,0.3692,0.3692,0.3691,0,0,0.3909,0.3877,0.3879,0.387,0.3848,0.3843,0.3841,0.3829,0.3826,0.3813,0.3812,0.3801,0.3788,0.378,0.3765,0.3767,0.3788,0.3753,0.3752,0.3761,0.38,0.3812,0.3816,0.3777,0.3777,0.3778,0.3802,0,0.3931,0.3926,0.3905,0.3907,0.3902,0.3877,0.3875,0.3862,0.3848,0.3843,0.3828,0.3821,0.3804,0.3799,0.38,0.3785,0.3795,0.3783,0.3776,0.3776,0.3782,0.382,0.3831,0.3855,0.3805,0.3805,0.3806,0,0.3957,0.3946,0.3947,0.3926,0.3923,0.3922,0.391,0.3904,0.3889,0.3879,0.387,0.3853,0.3851,0.3834,0.3831,0.3823,0.3819,0.3811,0.3812,0.3811,0.3793,0.3821,0.3862,0.3866,0.381,0.381,0.3809,0,0.3992,0.3977,0.3976,0.397,0.3945,0.3945,0.3935,0.3919,0.3913,0.3902,0.3899,0.3888,0.3882,0.3875,0.3856,0.3845,0.3855,0.3837,0.3848,0.3849,0.3852,0.3852,0.3894,0.3848,0.3848,0.3848,0.3848,0,0.402,0.4022,0.3992,0.3991,0.3993,0.3969,0.3972,0.3959,0.3946,0.3943,0.392,0.3918,0.3892,0.3888,0.3872,0.3873,0.387,0.3863,0.3859,0.3866,0.3867,0.3863,0.3862,0.3849,0.3848,0.3848,0.3848,0,0.406,0.4039,0.4037,0.4014,0.4008,0.401,0.3991,0.399,0.3975,0.3972,0.397,0.3947,0.394,0.392,0.3908,0.3898,0.3904,0.3896,0.3909,0.3907,0.392,0.3919,0.3962,0.3967,0.3916,0.3917,0.3917,0,0.4079,0.408,0.4057,0.4054,0.4045,0.4039,0.4033,0.401,0.4006,0.3989,0.399,0.3982,0.3974,0.3965,0.3948,0.3939,0.3931,0.3946,0.3929,0.3936,0.3933,0.3933,0.3934,0.395,0.3951,0.3952,0.3952,0,0.4117,0.4107,0.4099,0.4089,0.4082,0.4073,0.4062,0.4061,0.4035,0.4031,0.4024,0.4018,0.4006,0.3999,0.3987,0.3977,0.3961,0.3957,0.396,0.3967,0.3975,0.3972,0.392,0.3957,0.3956,0.3956,0.3956,0.3956,0.4147,0.4148,0.4132,0.4125,0.4114,0.4105,0.4103,0.4089,0.4082,0.4071,0.4058,0.4053,0.4039,0.4022,0.4013,0.4009,0.4,0.4003,0.4004,0.4006,0.4009,0.3975,0.4007,0.4007,0.4006,0.4006,0.4006,0,0.4185,0.4174,0.4167,0.4153,0.4148,0.4132,0.412,0.4117,0.4112,0.41,0.4093,0.4086,0.4079,0.4061,0.4052,0.4053,0.4045,0.4051,0.4052,0.405,0.4017,0.4016,0.4058,0.4058,0.4058,0.4058,0.4058,0.4058,0.4203,0.4203,0.4192,0.4187,0.4176,0.417,0.4165,0.4157,0.4147,0.414,0.4134,0.4122,0.4108,0.4099,0.4092,0.4087,0.4085,0.4094,0.4087,0.4057,0.4052,0.4047,0.4047,0.4094,0.4094,0.412,0.412,0.412]},{"header":{"parameterUnit":"m.s-1","parameterCategory":1,"la1":30.2991,"la2":30.254,"lo1":-89.0895,"lo2":-89.0444,"dy":0.0017,"dx":0.0017,"nx":28,"ny":28,"refTime":"2024-02-28T03:00:00:Z","depth":0,"parameterNumber":3,"parameterNumberName":"V-component_of_WINDS"},"data":[0,0,0,0,0,0,0,0,0,0,0,0,0,0,0,0,0,0,0,0,0,0,0,0,0,0,0,0,0,0,0,0,0,0,0,0,0,0,0,0,0,0,0,0,0,0,0,0,0,0,0,0,0,0,0,0,0,0,5.0393,5.0393,0,5.0395,5.0395,5.0395,5.0348,5.0346,5.0345,5.0344,5.0346,5.0348,5.0349,0,0,0,0,0,0,0,0,0,0,0,0,0,5.035,5.0351,5.0393,5.0393,5.0393,5.0395,5.0395,5.0395,5.0348,5.0346,5.0345,5.0343,5.0346,5.0347,5.0349,0,0,0,0,0,0,0,0,0,0,0,0,0,5.0362,5.0351,5.0393,5.037,5.0368,5.0395,5.0395,5.0395,5.0348,5.0346,5.0344,5.0343,5.0345,5.0347,5.0349,5.0399,0,0,5.0355,5.0356,0,0,0,0,0,0,0,0,5.0361,5.0364,5.0373,5.0371,5.0369,5.0369,5.0381,5.0396,5.0349,5.0356,5.0344,5.0342,5.0355,5.0356,5.0361,5.0399,5.0399,5.0355,5.0356,5.0357,5.0357,0,0,0,0,0,0,0,5.0361,5.0363,5.0394,5.0373,5.0371,5.036,5.0359,5.0383,5.0366,5.0355,5.0351,5.0352,5.0354,5.0359,5.0361,5.0399,5.0355,5.0357,5.0358,5.0358,5.0481,5.0483,0,0,0,0,0,0,5.0363,5.0363,5.0394,5.0394,5.036,5.0362,5.0362,5.0371,5.0366,5.0363,5.0354,5.035,5.0357,5.0359,5.0361,5.0421,5.0357,5.0359,5.036,5.0479,5.0482,5.0484,0,0,0,0,0,0,5.0362,5.0366,5.0394,5.0377,5.038,5.0365,5.0376,5.0372,5.0377,5.0365,5.0362,5.0362,5.0356,5.0358,5.039,5.042,5.0359,5.0361,5.0477,5.048,5.0483,5.0541,0,0,0,0,0,0,5.0361,5.0366,5.0384,5.0378,5.0381,5.0423,5.0378,5.0374,5.0381,5.0376,5.0372,5.037,5.0354,5.0388,5.0392,5.0422,5.0363,5.0474,5.0478,5.0482,5.0536,5.0545,5.0554,0,0,0,0,0,5.036,5.04,5.0385,5.0389,5.0404,5.0425,5.0426,5.0408,5.0383,5.0402,5.0395,5.037,5.0416,5.0392,5.0396,5.0427,5.0472,5.0477,5.0481,5.0532,5.0544,5.0553,0,0,0,0,0,0,5.0409,5.0399,5.0382,5.0422,5.0425,5.0417,5.044,5.042,5.043,5.0425,5.0401,5.0401,5.0438,5.0435,5.0408,5.0476,5.044,5.0446,5.0477,5.0487,5.0496,5.0497,5.0364,0,0,0,0,0,5.0425,5.0443,5.0432,5.0468,5.047,5.0455,5.0463,5.0449,5.0451,5.0452,5.0446,5.045,5.0465,5.0476,5.0489,5.0535,5.0535,5.0558,5.0567,5.0574,5.058,5.0608,5.0619,5.05,5.05,5.05,0,0,5.0457,5.0453,5.0466,5.0478,5.0478,5.0499,5.0456,5.0478,5.0494,5.0455,5.0486,5.0483,5.0485,5.0525,5.0542,5.0524,5.0613,5.058,5.0586,5.0588,5.0614,5.0625,5.0635,5.0503,5.0502,5.0502,0,0,5.0527,5.0525,5.0556,5.0557,5.0559,5.0549,5.0557,5.0552,5.0549,5.0579,5.0552,5.0569,5.0595,5.0599,5.0604,5.0678,5.0657,5.0683,5.0729,5.0756,5.0765,5.0773,5.0802,5.0813,5.0688,5.0688,5.0688,0,5.0567,5.0595,5.0574,5.0599,5.0606,5.0573,5.0605,5.0608,5.0614,5.062,5.0599,5.0633,5.0632,5.0674,5.0692,5.0696,5.0706,5.0684,5.0765,5.0773,5.0781,5.0808,5.0819,5.0692,5.0691,5.0691,5.0691,0,5.0646,5.0667,5.0691,5.0699,5.0709,5.0737,5.0721,5.0734,5.0719,5.0711,5.0744,5.0742,5.0755,5.0764,5.0748,5.0805,5.0794,5.0769,5.0733,5.0796,5.0821,5.0831,5.0697,5.0695,5.0694,5.0693,0,0,5.0747,5.0744,5.0754,5.0758,5.0758,5.0774,5.0801,5.0815,5.0828,5.0833,5.0857,5.0881,5.0859,5.0865,5.085,5.0874,5.0936,5.0847,5.0847,5.0866,5.1001,5.1021,5.1033,5.0921,5.0923,5.0924,5.1001,0,5.0817,5.0864,5.0847,5.0896,5.0916,5.0885,5.091,5.0913,5.0907,5.0924,5.0917,5.0936,5.0904,5.0908,5.0929,5.0924,5.0963,5.0917,5.0945,5.0946,5.0948,5.1046,5.1067,5.114,5.1011,5.1012,5.1014,0,5.0904,5.0915,5.0967,5.0966,5.0974,5.0996,5.1009,5.1024,5.1028,5.1022,5.103,5.1011,5.1039,5.1002,5.1042,5.1012,5.1022,5.1021,5.1023,5.1027,5.0985,5.1055,5.1162,5.1174,5.1028,5.1027,5.1026,0,5.0977,5.1003,5.1038,5.1043,5.1042,5.1059,5.1059,5.1061,5.1071,5.1082,5.1089,5.1103,5.1111,5.1123,5.1108,5.1082,5.1152,5.1112,5.115,5.115,5.1167,5.1167,5.1281,5.117,5.117,5.1169,5.1169,0,5.1058,5.1091,5.1071,5.1093,5.113,5.111,5.1148,5.1144,5.1147,5.1169,5.1142,5.1163,5.1141,5.1161,5.1149,5.1186,5.1189,5.1187,5.1184,5.1191,5.1192,5.1199,5.1194,5.1172,5.1172,5.1171,5.1171,0,5.1145,5.1133,5.117,5.1166,5.1167,5.1194,5.1192,5.1213,5.1205,5.1233,5.1238,5.1227,5.1248,5.1235,5.1256,5.1249,5.1298,5.1286,5.1297,5.1295,5.1334,5.1332,5.1459,5.1475,5.1351,5.1353,5.1354,0,5.1199,5.1225,5.1225,5.1238,5.124,5.1261,5.1272,5.1253,5.1265,5.1273,5.1294,5.1313,5.1328,5.1364,5.1358,5.1375,5.1366,5.1409,5.1368,5.1375,5.137,5.137,5.1373,5.1418,5.1419,5.142,5.1421,0,5.1297,5.1291,5.1307,5.1323,5.1337,5.1347,5.1356,5.1368,5.135,5.1365,5.1388,5.1399,5.1422,5.1443,5.1457,5.1459,5.1438,5.1434,5.1444,5.1453,5.1459,5.1459,5.1322,5.1432,5.1431,5.143,5.1429,5.1429,5.1372,5.1394,5.1398,5.1419,5.1423,5.1433,5.1453,5.1449,5.1467,5.1485,5.1472,5.1499,5.1505,5.1522,5.1527,5.1548,5.1531,5.1545,5.1549,5.1553,5.156,5.1454,5.155,5.155,5.155,5.1549,5.1549,0,5.1471,5.1473,5.1491,5.1505,5.1522,5.15,5.151,5.1525,5.1549,5.1556,5.1572,5.1599,5.1619,5.1615,5.1634,5.1652,5.1643,5.1658,5.1658,5.1659,5.1573,5.1564,5.1665,5.1665,5.1665,5.1665,5.1665,5.1665,5.1525,5.1562,5.1556,5.1597,5.1598,5.1625,5.1632,5.1642,5.1647,5.1679,5.1696,5.1693,5.1696,5.1715,5.1733,5.1732,5.1741,5.176,5.1755,5.1676,5.1664,5.1654,5.1645,5.1761,5.1762,5.184,5.184,5.1841]}]]